Preview of NWS' New Version of Forecast
This preview is not operational and should not be used for support decisions.

Regional Weather Roundup (RWR)

Issued by National Weather Service (NWS)

                            
000
ASUS43 KDTX 190301
RWRMI 
MICHIGAN HOURLY REGIONAL WEATHER ROUNDUP
NATIONAL WEATHER SERVICE DETROIT/PONTIAC MI
1100 PM EDT WED SEP 18 2019

NOTE: "FAIR" INDICATES FEW OR NO CLOUDS BELOW 12,000 FEET WITH NO
SIGNIFICANT WEATHER AND/OR OBSTRUCTION TO VISIBILITY.

MIZ047>049-052>055-059>063-066>070-074>076-081>083-190400-
SOUTHEAST LOWER MICHIGAN
  
CITY           SKY/WX    TMP DP  RH WIND       PRES   REMARKS
ADRIAN         FAIR      62  57  83 E5        30.19S                  
ANN ARBOR      FAIR      62  56  80 E5        30.19S                  
BAD AXE        FAIR      63  49  61 S6        30.20R                  
DETROIT CITY   FAIR      65  57  75 SE7       30.20F                  
DETROIT        FAIR      65  57  75 E5        30.20S                  
FLINT          FAIR      62  49  62 SE3       30.18S                  
GROSSE ILE     FAIR      63  58  84 E3        30.18F                  
HILLSDALE      MOCLDY    63  57  81 E10       30.17S                  
HOWELL         FAIR      62  52  69 SE8       30.18S                  

CITY           SKY/WX    TMP DP  RH WIND       PRES   REMARKS
JACKSON        FAIR      64  54  69 E8        30.18R                  
LANSING        FAIR      66  54  65 SE7       30.18R                  
LAPEER         FAIR      63  50  63 SE6       30.20S                  
MASON          FAIR      62  55  77 SE5       30.18S                  
MONROE         FAIR      68  63  83 E7        30.18S                  
MT. CLEMENS    PTCLDY    64  58  82 SE7       30.19F                  
PONTIAC        FAIR      65  52  62 SE7       30.19S                  
PORT HOPE        N/A     67  47  48 S8        30.18R                  
PORT HURON     FAIR      63  52  67 SE6       30.21F                  
TRI CITIES     FAIR      67  48  50 S9        30.17F                  
MIDLAND        FAIR      69  45  41 SE8       30.16R                  
TROY           FAIR      68  55  62 E3        30.22S                  
SAGINAW HB     FAIR      63  50  63 SE8       30.17S                  
$$
MIZ043>046-050>051-056>058-064>065-071>073-077>080-190400-
SOUTHWEST LOWER MICHIGAN
  
CITY           SKY/WX    TMP DP  RH WIND       PRES   REMARKS
BATTLE CREEK   FAIR      67  53  61 SE10      30.16S                  
BENTON HARBOR  FAIR      67  56  67 SE7       30.10F                  
BIG RAPIDS     FAIR      67  58  72 S8        30.13F                  
COLDWATER      FAIR      65  52  62 SE6       30.16S                  
FREMONT        FAIR      68  53  59 SE7       30.11F                  
HOLLAND        FAIR      68  59  73 SE12G18   30.12S                  
GRAND RAPIDS   FAIR      67  55  65 SE9       30.14S                  
IONIA          FAIR      64  55  70 SE10      30.15S                  
KALAMAZOO      FAIR      67  53  61 SE5       30.16R                  
LUDINGTON      FAIR      69  58  66 S3        30.09R                  
MARSHALL       FAIR      63  53  70 SE5       30.16S                  
MOUNT PLEASANT FAIR      65  55  68 CALM      30.15S                  
MUSKEGON       FAIR      66  57  72 SE6       30.11S                  
SOUTH HAVEN    FAIR      68  59  73 SE6       30.11S                  
$$
MIZ016>042-190400-
NORTHERN LOWER MICHIGAN
  
CITY           SKY/WX    TMP DP  RH WIND       PRES   REMARKS
ALPENA         FAIR      61  55  81 S7        30.16S                  
BEAVER ISLAND  FAIR      59  58  97 CALM      30.09S                  
CADILLAC       FAIR      70  55  59 S8        30.12F                  
CHARLEVOIX     FAIR      72  58  60 S10       30.11R                  
FRANKFORT      FAIR      73  59  61 CALM      30.10R                  
GAYLORD        FAIR      65  57  75 S10       30.13F                  
GRAYLING       FAIR      64  58  82 S7        30.13F                  
HARBOR SPRINGS FAIR      70  57  63 CALM      30.09S                  
HOUGHTON LAKE  FAIR      66  52  60 S10       30.16S                  
MANISTEE       FAIR      65  61  87 NW3       30.10R                  
OSCODA         FAIR      67  51  55 S7        30.17S                  
PELLSTON       FAIR      59  55  87 CALM      30.10R                  
ROGERS CITY    FAIR      65  57  75 S9        30.13S                  
TRAVERSE CITY  FAIR      71  59  65 S6        30.08R                  
$$
MIZ007>008-015-190400-
EASTERN UPPER MICHIGAN
  
CITY           SKY/WX    TMP DP  RH WIND       PRES   REMARKS
NEWBERRY       FAIR      65  62  91 S8        30.07S                  
S. S. MARIE    FAIR      62  58  86 E5        30.09S                  
MUNISING         N/A     69  58  67 S10G20    29.99F                  
$$
MIZ004>006-011>014-085-190400-
CENTRAL UPPER MICHIGAN
  
CITY           SKY/WX    TMP DP  RH WIND       PRES   REMARKS
ESCANABA       FAIR      65  61  87 S8        30.03F                  
MENOMINEE      FAIR      69  62  78 S9        30.03F                  
$$
MIZ001>003-009>011-084-190400-
WESTERN UPPER MICHIGAN
  
CITY           SKY/WX    TMP DP  RH WIND       PRES   REMARKS
IRON MOUNTAIN  CLOUDY    68  63  84 S9G20     30.00S                  
HOUGHTON       FAIR      73  65  75 S10       29.89F                  
COPPER HARBOR    N/A     69  62  78 SW8G22    29.87F                  
IRONWOOD       FAIR      73  65  75 S10G18    29.91S                  
$$

ABBREVIATIONS USED IN REMARKS
   TC - TEMPERATURE IN CELSIUS
  WCI - WIND CHILL INDEX
   HX - HEAT INDEX
  VSB - VISIBILITY